This is the latest recevied weather packets stored in our database for station/object N5DGC. If no packets are shown the sender has not sent any weather packets the latest 10 day(s).
| Time | Temp. | Humidity | Pressure | Rain* | Wind** | Luminosity | Snow |
|---|---|---|---|---|---|---|---|
| 1787862693 | 37.22° C | 19% | 1242.2 hPa | 0 mm | - | 816 W/m² | - |
| 1787862389 | 37.22° C | 19% | 1242.3 hPa | 0 mm | - | 808 W/m² | - |
| 1787862084 | 36.11° C | 19% | 1242.2 hPa | 0 mm | - | 811 W/m² | - |
| 1787861784 | 36.11° C | 19% | 1242.5 hPa | 0 mm | - | 818 W/m² | - |
| 1787861482 | 36.67° C | 20% | 1242.4 hPa | 0 mm | - | 824 W/m² | - |
| 1787861177 | 36.67° C | 19% | 1242.7 hPa | 0 mm | - | 831 W/m² | - |
| 1787860876 | 36.67° C | 20% | 1242.5 hPa | 0 mm | - | 834 W/m² | - |
| 1787860570 | 35.56° C | 20% | 1242.8 hPa | 0 mm | - | 831 W/m² | - |
| 1787860266 | 35.56° C | 21% | 1242.7 hPa | 0 mm | - | 833 W/m² | - |
| 1787859961 | 35.56° C | 21% | 1243 hPa | 0 mm | - | 832 W/m² | - |
| 1787859656 | 35.56° C | 20% | 1243.1 hPa | 0 mm | - | 835 W/m² | - |
| 1787859355 | 35° C | 21% | 1243.2 hPa | 0 mm | - | 649 W/m² | - |
| 1787859052 | 35° C | 21% | 1243.4 hPa | 0 mm | - | 798 W/m² | - |
| 1787858747 | 34.44° C | 22% | 1243.2 hPa | 0 mm | - | 902 W/m² | - |
| 1787858444 | 34.44° C | 21% | 1243.2 hPa | 0 mm | - | 903 W/m² | - |
| 1787858142 | 33.89° C | 23% | 1243.4 hPa | 0 mm | - | 906 W/m² | - |
| 1787857838 | 33.89° C | 22% | 1243.4 hPa | 0 mm | - | 912 W/m² | - |
| 1787857534 | 33.89° C | 23% | 1243.6 hPa | 0 mm | - | 915 W/m² | - |
| 1787857233 | 33.33° C | 24% | 1243.6 hPa | 0 mm | - | 922 W/m² | - |
| 1787856932 | 35° C | 22% | 1243.7 hPa | 0 mm | - | 921 W/m² | - |
| 1787856627 | 33.89° C | 23% | 1243.7 hPa | 0 mm | - | 921 W/m² | - |
| 1787856322 | 33.89° C | 23% | 1243.8 hPa | 0 mm | - | 918 W/m² | - |
| 1787856018 | 33.89° C | 23% | 1243.9 hPa | 0 mm | - | 917 W/m² | - |
| 1787855717 | 33.89° C | 24% | 1244.3 hPa | 0 mm | - | 912 W/m² | - |
| 1787855412 | 33.33° C | 24% | 1244.5 hPa | 0 mm | - | 908 W/m² | - |
* Rain latest hour (hover to see other rain measurements)
** Current wind speed in m/s (hover to see current wind gust speed)